User: anonymous
Location: Pella
(41.4080°N, 92.9160°W)
Time: 16:43:15
(UTC-05:00)
Language:

Iridium 91 - Orbit

View from above orbital plane
View from above orbital plane
View from above satellite
View from above satellite

Ground track
Ground track

The orbit data is extracted from the following two-line orbital elements,

1 27372U 02005A   14261.31653005  .00000232  00000-0  75837-4 0  4845
2 27372 086.4024 346.8907 0000991 122.1583 300.3577 14.34214388667883
Epoch (UTC): 18 September 2014 07:35:48
Eccentricity: 0.0000991
inclination: 86.4024°
perigee height: 777 km
apogee height: 778 km
right ascension of ascending node: 346.8907°
argument of perigee: 122.1583°
revolutions per day: 14.34214388
mean anomaly at epoch: 300.3577°
orbit number at epoch: 66788

The dashed part of the orbit path shows where the satellite is in the earth's shadow,  

DLR